Time,TemperatureF,DewpointF,PressureIn,WindDirection,WindDirectionDegrees,WindSpeedMPH,WindSpeedGustMPH,Humidity,HourlyPrecipIn,Conditions,Clouds,dailyrainin,SoftwareType,DateUTC
2013-08-01 00:01:00,68.7,67.2,30.04,NNE,19,0.0,0.0,95,0.00,,,0.00,WeatherCatV1.20B785,2013-08-01 05:01:00,
2013-08-01 00:06:00,68.6,67.1,30.05,NNE,19,0.0,0.0,95,0.00,,,0.00,WeatherCatV1.20B785,2013-08-01 05:06:00,
2013-08-01 00:11:00,68.6,67.1,30.05,East,80,0.0,1.0,95,0.00,,,0.00,WeatherCatV1.20B785,2013-08-01 05:11:00,
2013-08-01 00:16:00,68.6,67.1,30.05,East,80,0.0,0.0,95,0.00,,,0.00,WeatherCatV1.20B785,2013-08-01 05:16:00,
2013-08-01 00:21:00,68.6,67.1,30.05,East,80,0.0,0.0,95,0.00,,,0.00,WeatherCatV1.20B785,2013-08-01 05:21:00,
2013-08-01 00:26:00,68.5,67.0,30.04,ESE,104,0.0,2.0,95,0.00,,,0.00,WeatherCatV1.20B785,2013-08-01 05:26:00,
2013-08-01 00:31:00,68.5,67.0,30.05,ENE,73,0.0,0.0,95,0.00,,,0.00,WeatherCatV1.20B785,2013-08-01 05:31:00,
2013-08-01 00:36:00,68.4,66.9,30.05,ENE,73,0.0,0.0,95,0.00,,,0.00,WeatherCatV1.20B785,2013-08-01 05:36:00,
2013-08-01 00:41:00,68.4,67.2,30.04,ENE,73,2.0,2.0,96,0.00,,,0.00,WeatherCatV1.20B785,2013-08-01 05:41:00,
2013-08-01 00:46:00,68.4,67.2,30.04,ENE,73,0.0,1.0,96,0.00,,,0.00,WeatherCatV1.20B785,2013-08-01 05:46:00,
2013-08-01 00:51:00,68.3,67.1,30.04,ENE,73,0.0,1.0,96,0.00,,,0.00,WeatherCatV1.20B785,2013-08-01 05:51:00,
2013-08-01 00:56:00,68.3,67.1,30.04,ENE,73,0.0,0.0,96,0.00,,,0.00,WeatherCatV1.20B785,2013-08-01 05:56:00,
2013-08-01 01:01:00,68.2,67.0,30.04,ENE,73,0.0,0.0,96,0.00,,,0.00,WeatherCatV1.20B785,2013-08-01 06:01:00,
2013-08-01 01:06:00,68.1,66.6,30.04,ENE,73,0.0,0.0,95,0.00,,,0.00,WeatherCatV1.20B785,2013-08-01 06:06:00,
2013-08-01 01:11:00,68.0,66.5,30.03,ENE,73,0.0,0.0,95,0.00,,,0.00,WeatherCatV1.20B785,2013-08-01 06:11:00,
2013-08-01 01:16:00,67.9,66.4,30.03,ENE,73,0.0,0.0,95,0.00,,,0.00,WeatherCatV1.20B785,2013-08-01 06:16:00,
2013-08-01 01:21:00,67.8,66.3,30.03,ENE,73,0.0,0.0,95,0.00,,,0.00,WeatherCatV1.20B785,2013-08-01 06:21:00,
2013-08-01 01:26:00,67.7,66.2,30.03,ENE,73,0.0,0.0,95,0.00,,,0.00,WeatherCatV1.20B785,2013-08-01 06:26:00,
2013-08-01 01:31:00,67.6,66.1,30.04,ENE,73,0.0,0.0,95,0.00,,,0.00,WeatherCatV1.20B785,2013-08-01 06:31:00,
2013-08-01 01:36:00,67.4,65.9,30.03,ENE,73,0.0,0.0,95,0.00,,,0.00,WeatherCatV1.20B785,2013-08-01 06:36:00,
2013-08-01 01:41:00,67.3,65.8,30.04,ENE,73,0.0,0.0,95,0.00,,,0.00,WeatherCatV1.20B785,2013-08-01 06:41:00,
2013-08-01 01:46:00,67.1,65.6,30.03,ENE,73,0.0,0.0,95,0.00,,,0.00,WeatherCatV1.20B785,2013-08-01 06:46:00,
2013-08-01 01:51:00,67.0,65.5,30.04,ENE,73,0.0,0.0,95,0.00,,,0.00,WeatherCatV1.20B785,2013-08-01 06:51:00,
2013-08-01 01:56:00,66.8,65.3,30.03,ENE,73,0.0,0.0,95,0.00,,,0.00,WeatherCatV1.20B785,2013-08-01 06:56:00,
2013-08-01 02:01:00,66.7,65.2,30.04,ENE,73,0.0,0.0,95,0.00,,,0.00,WeatherCatV1.20B785,2013-08-01 07:01:00,
2013-08-01 02:06:00,66.6,65.1,30.04,ENE,73,0.0,0.0,95,0.00,,,0.00,WeatherCatV1.20B785,2013-08-01 07:06:00,
2013-08-01 02:11:00,66.5,65.0,30.04,ENE,73,0.0,0.0,95,0.00,,,0.00,WeatherCatV1.20B785,2013-08-01 07:11:00,
2013-08-01 02:16:00,66.4,64.9,30.04,ENE,73,0.0,0.0,95,0.00,,,0.00,WeatherCatV1.20B785,2013-08-01 07:16:00,
2013-08-01 02:21:00,66.3,64.8,30.04,ENE,73,0.0,0.0,95,0.00,,,0.00,WeatherCatV1.20B785,2013-08-01 07:21:00,
2013-08-01 02:26:00,66.2,64.7,30.03,ENE,73,0.0,0.0,95,0.00,,,0.00,WeatherCatV1.20B785,2013-08-01 07:26:00,
2013-08-01 02:31:00,66.1,64.6,30.04,ENE,73,0.0,0.0,95,0.00,,,0.00,WeatherCatV1.20B785,2013-08-01 07:31:00,
2013-08-01 02:36:00,66.0,64.8,30.03,ENE,73,0.0,0.0,96,0.00,,,0.00,WeatherCatV1.20B785,2013-08-01 07:36:00,
2013-08-01 02:41:00,66.0,64.8,30.03,ENE,73,0.0,0.0,96,0.00,,,0.00,WeatherCatV1.20B785,2013-08-01 07:41:00,
2013-08-01 02:46:00,65.9,64.7,30.03,ENE,73,0.0,0.0,96,0.00,,,0.00,WeatherCatV1.20B785,2013-08-01 07:46:00,
2013-08-01 02:51:00,65.8,64.6,30.03,ENE,73,0.0,0.0,96,0.00,,,0.00,WeatherCatV1.20B785,2013-08-01 07:51:00,
2013-08-01 02:56:00,65.7,64.5,30.03,ENE,73,0.0,0.0,96,0.00,,,0.00,WeatherCatV1.20B785,2013-08-01 07:56:00,
2013-08-01 03:01:00,65.7,64.5,30.03,ENE,73,0.0,0.0,96,0.00,,,0.00,WeatherCatV1.20B785,2013-08-01 08:01:00,
2013-08-01 03:06:00,65.6,64.4,30.03,ENE,73,0.0,1.0,96,0.00,,,0.00,WeatherCatV1.20B785,2013-08-01 08:06:00,
2013-08-01 03:11:00,65.5,64.3,30.03,ENE,73,0.0,0.0,96,0.00,,,0.00,WeatherCatV1.20B785,2013-08-01 08:11:00,
2013-08-01 03:16:00,65.4,64.2,30.04,ENE,73,0.0,0.0,96,0.00,,,0.00,WeatherCatV1.20B785,2013-08-01 08:16:00,
2013-08-01 03:21:00,65.3,64.4,30.04,ENE,73,0.0,0.0,97,0.00,,,0.00,WeatherCatV1.20B785,2013-08-01 08:21:00,
2013-08-01 03:26:00,65.3,64.4,30.04,ENE,73,0.0,0.0,97,0.00,,,0.00,WeatherCatV1.20B785,2013-08-01 08:26:00,
2013-08-01 03:31:00,65.2,64.3,30.04,ENE,73,0.0,0.0,97,0.00,,,0.00,WeatherCatV1.20B785,2013-08-01 08:31:00,
2013-08-01 03:36:00,65.2,64.3,30.04,ENE,73,0.0,0.0,97,0.00,,,0.00,WeatherCatV1.20B785,2013-08-01 08:36:00,
2013-08-01 03:41:00,65.1,64.2,30.04,ENE,73,0.0,0.0,97,0.00,,,0.00,WeatherCatV1.20B785,2013-08-01 08:41:00,
2013-08-01 03:46:00,65.0,64.1,30.05,ENE,73,0.0,0.0,97,0.00,,,0.00,WeatherCatV1.20B785,2013-08-01 08:46:00,
2013-08-01 03:49:00,65.0,64.1,30.05,ENE,73,0.0,0.0,97,0.00,,,0.00,WeatherCatV1.20B785,2013-08-01 08:49:00,
2013-08-01 03:54:00,64.9,64.0,30.05,ENE,73,0.0,0.0,97,0.00,,,0.00,WeatherCatV1.20B785,2013-08-01 08:54:00,
2013-08-01 03:59:00,64.8,63.9,30.04,ENE,73,0.0,0.0,97,0.00,,,0.00,WeatherCatV1.20B785,2013-08-01 08:59:00,
2013-08-01 04:04:00,64.6,63.7,30.04,ENE,73,0.0,0.0,97,0.00,,,0.00,WeatherCatV1.20B785,2013-08-01 09:04:00,
2013-08-01 04:09:00,64.5,63.6,30.04,ENE,73,0.0,0.0,97,0.00,,,0.00,WeatherCatV1.20B785,2013-08-01 09:09:00,
2013-08-01 04:14:00,64.4,63.5,30.04,ENE,73,0.0,0.0,97,0.00,,,0.00,WeatherCatV1.20B785,2013-08-01 09:14:00,
2013-08-01 04:19:00,64.3,63.4,30.04,ENE,73,0.0,0.0,97,0.00,,,0.00,WeatherCatV1.20B785,2013-08-01 09:19:00,
2013-08-01 04:24:00,64.3,63.4,30.05,ENE,73,0.0,0.0,97,0.00,,,0.00,WeatherCatV1.20B785,2013-08-01 09:24:00,
2013-08-01 04:29:00,64.2,63.3,30.05,ENE,73,0.0,0.0,97,0.00,,,0.00,WeatherCatV1.20B785,2013-08-01 09:29:00,
2013-08-01 04:34:00,64.1,63.2,30.05,ENE,73,0.0,0.0,97,0.00,,,0.00,WeatherCatV1.20B785,2013-08-01 09:34:00,
2013-08-01 04:39:00,64.1,63.2,30.05,ENE,73,0.0,0.0,97,0.00,,,0.00,WeatherCatV1.20B785,2013-08-01 09:39:00,
2013-08-01 04:44:00,64.1,63.2,30.05,ENE,73,0.0,0.0,97,0.00,,,0.00,WeatherCatV1.20B785,2013-08-01 09:44:00,
2013-08-01 04:49:00,64.0,63.1,30.05,ENE,73,0.0,0.0,97,0.00,,,0.00,WeatherCatV1.20B785,2013-08-01 09:49:00,
2013-08-01 04:54:00,63.9,63.0,30.05,ENE,73,0.0,1.0,97,0.00,,,0.00,WeatherCatV1.20B785,2013-08-01 09:54:00,
2013-08-01 04:59:00,63.8,62.9,30.05,ENE,73,0.0,0.0,97,0.00,,,0.00,WeatherCatV1.20B785,2013-08-01 09:59:00,
2013-08-01 05:04:00,63.7,62.8,30.05,ENE,73,0.0,0.0,97,0.00,,,0.00,WeatherCatV1.20B785,2013-08-01 10:04:00,
2013-08-01 05:09:00,63.6,62.7,30.05,ENE,73,0.0,0.0,97,0.00,,,0.00,WeatherCatV1.20B785,2013-08-01 10:09:00,
2013-08-01 05:14:00,63.5,62.6,30.05,ENE,73,0.0,0.0,97,0.00,,,0.00,WeatherCatV1.20B785,2013-08-01 10:14:00,
2013-08-01 05:19:00,63.5,62.6,30.05,ENE,73,0.0,0.0,97,0.00,,,0.00,WeatherCatV1.20B785,2013-08-01 10:19:00,
2013-08-01 05:24:00,63.4,62.8,30.05,ENE,73,0.0,0.0,98,0.00,,,0.00,WeatherCatV1.20B785,2013-08-01 10:24:00,
2013-08-01 05:29:00,63.5,62.9,30.05,ENE,73,0.0,0.0,98,0.00,,,0.00,WeatherCatV1.20B785,2013-08-01 10:29:00,
2013-08-01 05:34:00,63.4,62.8,30.06,ENE,73,0.0,0.0,98,0.00,,,0.00,WeatherCatV1.20B785,2013-08-01 10:34:00,
2013-08-01 05:39:00,63.4,62.8,30.06,ENE,73,0.0,0.0,98,0.00,,,0.00,WeatherCatV1.20B785,2013-08-01 10:39:00,
2013-08-01 05:40:00,63.4,62.8,30.06,ENE,73,0.0,0.0,98,0.00,,,0.00,WeatherCatV1.20B785,2013-08-01 10:40:00,
2013-08-01 05:45:00,63.4,62.8,30.06,ENE,73,0.0,0.0,98,0.00,,,0.00,WeatherCatV1.20B785,2013-08-01 10:45:00,
2013-08-01 05:50:00,63.4,62.8,30.06,ENE,73,0.0,0.0,98,0.00,,,0.00,WeatherCatV1.20B785,2013-08-01 10:50:00,
2013-08-01 05:55:00,63.4,62.8,30.06,ENE,73,0.0,0.0,98,0.00,,,0.00,WeatherCatV1.20B785,2013-08-01 10:55:00,
2013-08-01 06:00:00,63.4,62.8,30.06,ENE,73,0.0,0.0,98,0.00,,,0.00,WeatherCatV1.20B785,2013-08-01 11:00:00,
2013-08-01 06:05:00,63.4,62.8,30.06,ENE,73,0.0,0.0,98,0.00,,,0.00,WeatherCatV1.20B785,2013-08-01 11:05:00,
2013-08-01 06:10:00,63.1,62.5,30.06,NE,45,0.0,1.0,98,0.00,,,0.00,WeatherCatV1.20B785,2013-08-01 11:10:00,
2013-08-01 06:15:00,63.1,62.5,30.06,NE,45,0.0,1.0,98,0.00,,,0.00,WeatherCatV1.20B785,2013-08-01 11:15:00,
2013-08-01 06:20:00,63.1,62.5,30.06,NE,45,0.0,1.0,98,0.00,,,0.00,WeatherCatV1.20B785,2013-08-01 11:20:00,
2013-08-01 06:25:00,63.1,62.5,30.06,NE,45,0.0,1.0,98,0.00,,,0.00,WeatherCatV1.20B785,2013-08-01 11:25:00,
2013-08-01 06:30:00,63.1,62.5,30.06,NE,45,0.0,1.0,98,0.00,,,0.00,WeatherCatV1.20B785,2013-08-01 11:30:00,
2013-08-01 06:35:00,63.1,62.5,30.06,NE,45,0.0,1.0,98,0.00,,,0.00,WeatherCatV1.20B785,2013-08-01 11:35:00,
2013-08-01 06:40:00,63.3,62.7,30.07,NE,45,0.0,1.0,98,0.00,,,0.00,WeatherCatV1.20B785,2013-08-01 11:40:00,
2013-08-01 06:45:00,63.3,62.7,30.07,NE,45,0.0,1.0,98,0.00,,,0.00,WeatherCatV1.20B785,2013-08-01 11:45:00,
2013-08-01 06:50:00,63.3,62.7,30.07,NE,45,0.0,1.0,98,0.00,,,0.00,WeatherCatV1.20B785,2013-08-01 11:50:00,
2013-08-01 06:55:00,63.3,62.7,30.07,NE,45,0.0,1.0,98,0.00,,,0.00,WeatherCatV1.20B785,2013-08-01 11:55:00,
2013-08-01 07:00:00,63.3,62.7,30.07,NE,45,0.0,1.0,98,0.00,,,0.00,WeatherCatV1.20B785,2013-08-01 12:00:00,
2013-08-01 07:05:00,63.3,62.7,30.07,NE,45,0.0,1.0,98,0.00,,,0.00,WeatherCatV1.20B785,2013-08-01 12:05:00,
2013-08-01 07:10:00,63.6,63.3,30.08,NE,45,0.0,1.0,99,0.00,,,0.00,WeatherCatV1.20B785,2013-08-01 12:10:00,
2013-08-01 07:15:00,63.6,63.3,30.08,NE,45,0.0,1.0,99,0.00,,,0.00,WeatherCatV1.20B785,2013-08-01 12:15:00,
2013-08-01 07:20:00,63.6,63.3,30.08,NE,45,0.0,1.0,99,0.00,,,0.00,WeatherCatV1.20B785,2013-08-01 12:20:00,
2013-08-01 07:25:00,63.6,63.3,30.08,NE,45,0.0,1.0,99,0.00,,,0.00,WeatherCatV1.20B785,2013-08-01 12:25:00,
2013-08-01 07:30:00,63.6,63.3,30.08,NE,45,0.0,1.0,99,0.00,,,0.00,WeatherCatV1.20B785,2013-08-01 12:30:00,
2013-08-01 07:35:00,63.6,63.3,30.08,NE,45,0.0,1.0,99,0.00,,,0.00,WeatherCatV1.20B785,2013-08-01 12:35:00,
2013-08-01 07:40:00,64.9,64.6,30.08,NE,45,0.0,2.0,99,0.00,,,0.00,WeatherCatV1.20B785,2013-08-01 12:40:00,
2013-08-01 07:45:00,64.9,64.6,30.08,NE,45,0.0,2.0,99,0.00,,,0.00,WeatherCatV1.20B785,2013-08-01 12:45:00,
2013-08-01 07:50:00,64.9,64.6,30.08,NE,45,0.0,2.0,99,0.00,,,0.00,WeatherCatV1.20B785,2013-08-01 12:50:00,
2013-08-01 07:55:00,64.9,64.6,30.08,NE,45,0.0,2.0,99,0.00,,,0.00,WeatherCatV1.20B785,2013-08-01 12:55:00,
2013-08-01 08:00:00,64.9,64.6,30.08,NE,45,0.0,2.0,99,0.00,,,0.00,WeatherCatV1.20B785,2013-08-01 13:00:00,
2013-08-01 08:05:00,64.9,64.6,30.08,NE,45,0.0,2.0,99,0.00,,,0.00,WeatherCatV1.20B785,2013-08-01 13:05:00,
2013-08-01 08:10:00,66.9,66.9,30.08,NE,45,0.0,3.0,100,0.00,,,0.00,WeatherCatV1.20B785,2013-08-01 13:10:00,
2013-08-01 08:15:00,66.9,66.9,30.08,NE,45,0.0,3.0,100,0.00,,,0.00,WeatherCatV1.20B785,2013-08-01 13:15:00,
2013-08-01 08:20:00,66.9,66.9,30.08,NE,45,0.0,3.0,100,0.00,,,0.00,WeatherCatV1.20B785,2013-08-01 13:20:00,
2013-08-01 08:25:00,66.9,66.9,30.08,NE,45,0.0,3.0,100,0.00,,,0.00,WeatherCatV1.20B785,2013-08-01 13:25:00,
2013-08-01 08:30:00,66.9,66.9,30.08,NE,45,0.0,3.0,100,0.00,,,0.00,WeatherCatV1.20B785,2013-08-01 13:30:00,
2013-08-01 08:35:00,66.9,66.9,30.08,NE,45,0.0,3.0,100,0.00,,,0.00,WeatherCatV1.20B785,2013-08-01 13:35:00,
2013-08-01 08:40:00,68.7,68.1,30.08,NE,45,2.0,6.0,98,0.00,,,0.00,WeatherCatV1.20B785,2013-08-01 13:40:00,
2013-08-01 08:45:00,68.7,68.1,30.08,NE,45,2.0,6.0,98,0.00,,,0.00,WeatherCatV1.20B785,2013-08-01 13:45:00,
2013-08-01 08:50:00,68.7,68.1,30.08,NE,45,2.0,6.0,98,0.00,,,0.00,WeatherCatV1.20B785,2013-08-01 13:50:00,
2013-08-01 08:55:00,68.7,68.1,30.08,NE,45,2.0,6.0,98,0.00,,,0.00,WeatherCatV1.20B785,2013-08-01 13:55:00,
2013-08-01 09:00:00,68.7,68.1,30.08,NE,45,2.0,6.0,98,0.00,,,0.00,WeatherCatV1.20B785,2013-08-01 14:00:00,
2013-08-01 09:05:00,68.7,68.1,30.08,NE,45,2.0,6.0,98,0.00,,,0.00,WeatherCatV1.20B785,2013-08-01 14:05:00,
2013-08-01 09:10:00,71.0,69.2,30.09,ENE,68,2.0,7.0,94,0.00,,,0.00,WeatherCatV1.20B785,2013-08-01 14:10:00,
2013-08-01 09:15:00,71.0,69.2,30.09,ENE,68,2.0,7.0,94,0.00,,,0.00,WeatherCatV1.20B785,2013-08-01 14:15:00,
2013-08-01 09:20:00,71.0,69.2,30.09,ENE,68,2.0,7.0,94,0.00,,,0.00,WeatherCatV1.20B785,2013-08-01 14:20:00,
2013-08-01 09:25:00,71.0,69.2,30.09,ENE,68,2.0,7.0,94,0.00,,,0.00,WeatherCatV1.20B785,2013-08-01 14:25:00,
2013-08-01 09:30:00,71.0,69.2,30.09,ENE,68,2.0,7.0,94,0.00,,,0.00,WeatherCatV1.20B785,2013-08-01 14:30:00,
2013-08-01 09:35:00,71.0,69.2,30.09,ENE,68,2.0,7.0,94,0.00,,,0.00,WeatherCatV1.20B785,2013-08-01 14:35:00,
2013-08-01 09:40:00,73.3,68.2,30.08,ENE,68,3.0,9.0,84,0.00,,,0.00,WeatherCatV1.20B785,2013-08-01 14:40:00,
2013-08-01 09:45:00,73.3,68.2,30.08,ENE,68,3.0,9.0,84,0.00,,,0.00,WeatherCatV1.20B785,2013-08-01 14:45:00,
2013-08-01 09:50:00,73.3,68.2,30.08,ENE,68,3.0,9.0,84,0.00,,,0.00,WeatherCatV1.20B785,2013-08-01 14:50:00,
2013-08-01 09:55:00,73.3,68.2,30.08,ENE,68,3.0,9.0,84,0.00,,,0.00,WeatherCatV1.20B785,2013-08-01 14:55:00,
2013-08-01 10:00:00,73.3,68.2,30.08,ENE,68,3.0,9.0,84,0.00,,,0.00,WeatherCatV1.20B785,2013-08-01 15:00:00,
2013-08-01 10:05:00,73.3,68.2,30.08,ENE,68,3.0,9.0,84,0.00,,,0.00,WeatherCatV1.20B785,2013-08-01 15:05:00,
2013-08-01 10:10:00,75.6,67.9,30.08,ENE,68,2.0,8.0,77,0.00,,,0.00,WeatherCatV1.20B785,2013-08-01 15:10:00,
2013-08-01 10:15:00,75.6,67.9,30.08,ENE,68,2.0,8.0,77,0.00,,,0.00,WeatherCatV1.20B785,2013-08-01 15:15:00,
2013-08-01 10:20:00,75.6,67.9,30.08,ENE,68,2.0,8.0,77,0.00,,,0.00,WeatherCatV1.20B785,2013-08-01 15:20:00,
2013-08-01 10:25:00,75.6,67.9,30.08,ENE,68,2.0,8.0,77,0.00,,,0.00,WeatherCatV1.20B785,2013-08-01 15:25:00,
2013-08-01 10:30:00,75.6,67.9,30.08,ENE,68,2.0,8.0,77,0.00,,,0.00,WeatherCatV1.20B785,2013-08-01 15:30:00,
2013-08-01 10:35:00,75.6,67.9,30.08,ENE,68,2.0,8.0,77,0.00,,,0.00,WeatherCatV1.20B785,2013-08-01 15:35:00,
2013-08-01 10:40:00,77.3,66.7,30.09,ENE,68,3.0,8.0,70,0.00,,,0.00,WeatherCatV1.20B785,2013-08-01 15:40:00,
2013-08-01 10:45:00,77.3,66.7,30.09,ENE,68,3.0,8.0,70,0.00,,,0.00,WeatherCatV1.20B785,2013-08-01 15:45:00,
2013-08-01 10:50:00,77.3,66.7,30.09,ENE,68,3.0,8.0,70,0.00,,,0.00,WeatherCatV1.20B785,2013-08-01 15:50:00,
2013-08-01 10:55:00,77.3,66.7,30.09,ENE,68,3.0,8.0,70,0.00,,,0.00,WeatherCatV1.20B785,2013-08-01 15:55:00,
2013-08-01 11:00:00,77.3,66.7,30.09,ENE,68,3.0,8.0,70,0.00,,,0.00,WeatherCatV1.20B785,2013-08-01 16:00:00,
2013-08-01 11:05:00,77.3,66.7,30.09,ENE,68,3.0,8.0,70,0.00,,,0.00,WeatherCatV1.20B785,2013-08-01 16:05:00,
2013-08-01 11:10:00,78.5,67.1,30.09,East,90,3.0,8.0,68,0.00,,,0.00,WeatherCatV1.20B785,2013-08-01 16:10:00,
2013-08-01 11:15:00,78.5,67.1,30.09,East,90,3.0,8.0,68,0.00,,,0.00,WeatherCatV1.20B785,2013-08-01 16:15:00,
2013-08-01 11:20:00,78.5,67.1,30.09,East,90,3.0,8.0,68,0.00,,,0.00,WeatherCatV1.20B785,2013-08-01 16:20:00,
2013-08-01 11:25:00,78.5,67.1,30.09,East,90,3.0,8.0,68,0.00,,,0.00,WeatherCatV1.20B785,2013-08-01 16:25:00,
2013-08-01 11:30:00,78.5,67.1,30.09,East,90,3.0,8.0,68,0.00,,,0.00,WeatherCatV1.20B785,2013-08-01 16:30:00,
2013-08-01 11:35:00,78.5,67.1,30.09,East,90,3.0,8.0,68,0.00,,,0.00,WeatherCatV1.20B785,2013-08-01 16:35:00,
2013-08-01 11:40:00,79.8,67.0,30.08,East,90,3.0,10.0,65,0.00,,,0.00,WeatherCatV1.20B785,2013-08-01 16:40:00,
2013-08-01 11:45:00,79.8,67.0,30.08,East,90,3.0,10.0,65,0.00,,,0.00,WeatherCatV1.20B785,2013-08-01 16:45:00,
2013-08-01 11:50:00,79.8,67.0,30.08,East,90,3.0,10.0,65,0.00,,,0.00,WeatherCatV1.20B785,2013-08-01 16:50:00,
2013-08-01 11:55:00,79.8,67.0,30.08,East,90,3.0,10.0,65,0.00,,,0.00,WeatherCatV1.20B785,2013-08-01 16:55:00,
2013-08-01 12:00:00,79.8,67.0,30.08,East,90,3.0,10.0,65,0.00,,,0.00,WeatherCatV1.20B785,2013-08-01 17:00:00,
2013-08-01 12:05:00,79.8,67.0,30.08,East,90,3.0,10.0,65,0.00,,,0.00,WeatherCatV1.20B785,2013-08-01 17:05:00,
2013-08-01 12:10:00,81.4,67.1,30.08,SE,135,3.0,8.0,62,0.00,,,0.00,WeatherCatV1.20B785,2013-08-01 17:10:00,
2013-08-01 12:15:00,81.4,67.1,30.08,SE,135,3.0,8.0,62,0.00,,,0.00,WeatherCatV1.20B785,2013-08-01 17:15:00,
2013-08-01 12:20:00,81.4,67.1,30.08,SE,135,3.0,8.0,62,0.00,,,0.00,WeatherCatV1.20B785,2013-08-01 17:20:00,
2013-08-01 12:25:00,81.4,67.1,30.08,SE,135,3.0,8.0,62,0.00,,,0.00,WeatherCatV1.20B785,2013-08-01 17:25:00,
2013-08-01 12:30:00,81.4,67.1,30.08,SE,135,3.0,8.0,62,0.00,,,0.00,WeatherCatV1.20B785,2013-08-01 17:30:00,
2013-08-01 12:35:00,81.4,67.1,30.08,SE,135,3.0,8.0,62,0.00,,,0.00,WeatherCatV1.20B785,2013-08-01 17:35:00,
2013-08-01 12:40:00,82.2,66.9,30.07,East,90,2.0,9.0,60,0.00,,,0.00,WeatherCatV1.20B785,2013-08-01 17:40:00,
2013-08-01 12:45:00,82.2,66.9,30.07,East,90,2.0,9.0,60,0.00,,,0.00,WeatherCatV1.20B785,2013-08-01 17:45:00,
2013-08-01 12:50:00,82.2,66.9,30.07,East,90,2.0,9.0,60,0.00,,,0.00,WeatherCatV1.20B785,2013-08-01 17:50:00,
2013-08-01 12:55:00,82.2,66.9,30.07,East,90,2.0,9.0,60,0.00,,,0.00,WeatherCatV1.20B785,2013-08-01 17:55:00,
2013-08-01 13:00:00,82.2,66.9,30.07,East,90,2.0,9.0,60,0.00,,,0.00,WeatherCatV1.20B785,2013-08-01 18:00:00,
2013-08-01 13:05:00,82.2,66.9,30.07,East,90,2.0,9.0,60,0.00,,,0.00,WeatherCatV1.20B785,2013-08-01 18:05:00,
2013-08-01 13:10:00,82.7,67.4,30.07,SE,135,2.0,7.0,60,0.00,,,0.00,WeatherCatV1.20B785,2013-08-01 18:10:00,
2013-08-01 13:15:00,82.7,67.4,30.07,SE,135,2.0,7.0,60,0.00,,,0.00,WeatherCatV1.20B785,2013-08-01 18:15:00,
2013-08-01 13:20:00,82.7,67.4,30.07,SE,135,2.0,7.0,60,0.00,,,0.00,WeatherCatV1.20B785,2013-08-01 18:20:00,
2013-08-01 13:25:00,82.7,67.4,30.07,SE,135,2.0,7.0,60,0.00,,,0.00,WeatherCatV1.20B785,2013-08-01 18:25:00,
2013-08-01 13:30:00,82.7,67.4,30.07,SE,135,2.0,7.0,60,0.00,,,0.00,WeatherCatV1.20B785,2013-08-01 18:30:00,
2013-08-01 13:35:00,82.7,67.4,30.07,SE,135,2.0,7.0,60,0.00,,,0.00,WeatherCatV1.20B785,2013-08-01 18:35:00,
2013-08-01 13:40:00,83.6,66.2,30.06,East,90,2.0,7.0,56,0.00,,,0.00,WeatherCatV1.20B785,2013-08-01 18:40:00,
2013-08-01 13:45:00,83.6,66.2,30.06,East,90,2.0,7.0,56,0.00,,,0.00,WeatherCatV1.20B785,2013-08-01 18:45:00,
2013-08-01 13:50:00,83.6,66.2,30.06,East,90,2.0,7.0,56,0.00,,,0.00,WeatherCatV1.20B785,2013-08-01 18:50:00,
2013-08-01 13:55:00,83.6,66.2,30.06,East,90,2.0,7.0,56,0.00,,,0.00,WeatherCatV1.20B785,2013-08-01 18:55:00,
2013-08-01 14:00:00,83.6,66.2,30.06,East,90,2.0,7.0,56,0.00,,,0.00,WeatherCatV1.20B785,2013-08-01 19:00:00,
2013-08-01 14:05:00,83.6,66.2,30.06,East,90,2.0,7.0,56,0.00,,,0.00,WeatherCatV1.20B785,2013-08-01 19:05:00,
2013-08-01 14:10:00,84.0,66.1,30.05,ENE,68,2.0,7.0,55,0.00,,,0.00,WeatherCatV1.20B785,2013-08-01 19:10:00,
2013-08-01 14:15:00,84.0,66.1,30.05,ENE,68,2.0,7.0,55,0.00,,,0.00,WeatherCatV1.20B785,2013-08-01 19:15:00,
2013-08-01 14:20:00,84.0,66.1,30.05,ENE,68,2.0,7.0,55,0.00,,,0.00,WeatherCatV1.20B785,2013-08-01 19:20:00,
2013-08-01 14:25:00,84.0,66.1,30.05,ENE,68,2.0,7.0,55,0.00,,,0.00,WeatherCatV1.20B785,2013-08-01 19:25:00,
2013-08-01 14:30:00,84.0,66.1,30.05,ENE,68,2.0,7.0,55,0.00,,,0.00,WeatherCatV1.20B785,2013-08-01 19:30:00,
2013-08-01 14:35:00,84.0,66.1,30.05,ENE,68,2.0,7.0,55,0.00,,,0.00,WeatherCatV1.20B785,2013-08-01 19:35:00,
2013-08-01 14:40:00,84.4,66.4,30.04,ESE,112,2.0,6.0,55,0.00,,,0.00,WeatherCatV1.20B785,2013-08-01 19:40:00,
2013-08-01 14:45:00,84.4,66.4,30.04,ESE,112,2.0,6.0,55,0.00,,,0.00,WeatherCatV1.20B785,2013-08-01 19:45:00,
2013-08-01 14:50:00,84.4,66.4,30.04,ESE,112,2.0,6.0,55,0.00,,,0.00,WeatherCatV1.20B785,2013-08-01 19:50:00,
2013-08-01 14:55:00,84.4,66.4,30.04,ESE,112,2.0,6.0,55,0.00,,,0.00,WeatherCatV1.20B785,2013-08-01 19:55:00,
2013-08-01 15:00:00,84.4,66.4,30.04,ESE,112,2.0,6.0,55,0.00,,,0.00,WeatherCatV1.20B785,2013-08-01 20:00:00,
2013-08-01 15:05:00,84.4,66.4,30.04,ESE,112,2.0,6.0,55,0.00,,,0.00,WeatherCatV1.20B785,2013-08-01 20:05:00,
2013-08-01 15:10:00,84.7,65.6,30.04,ENE,68,2.0,7.0,53,0.00,,,0.00,WeatherCatV1.20B785,2013-08-01 20:10:00,
2013-08-01 15:15:00,84.7,65.6,30.04,ENE,68,2.0,7.0,53,0.00,,,0.00,WeatherCatV1.20B785,2013-08-01 20:15:00,
2013-08-01 15:20:00,84.7,65.6,30.04,ENE,68,2.0,7.0,53,0.00,,,0.00,WeatherCatV1.20B785,2013-08-01 20:20:00,
2013-08-01 15:25:00,84.7,65.6,30.04,ENE,68,2.0,7.0,53,0.00,,,0.00,WeatherCatV1.20B785,2013-08-01 20:25:00,
2013-08-01 15:30:00,84.7,65.6,30.04,ENE,68,2.0,7.0,53,0.00,,,0.00,WeatherCatV1.20B785,2013-08-01 20:30:00,
2013-08-01 15:35:00,84.7,65.6,30.04,ENE,68,2.0,7.0,53,0.00,,,0.00,WeatherCatV1.20B785,2013-08-01 20:35:00,
2013-08-01 15:40:00,86.2,66.5,30.04,ENE,68,2.0,6.0,52,0.00,,,0.00,WeatherCatV1.20B785,2013-08-01 20:40:00,
2013-08-01 15:45:00,86.2,66.5,30.04,ENE,68,2.0,6.0,52,0.00,,,0.00,WeatherCatV1.20B785,2013-08-01 20:45:00,
2013-08-01 15:50:00,86.2,66.5,30.04,ENE,68,2.0,6.0,52,0.00,,,0.00,WeatherCatV1.20B785,2013-08-01 20:50:00,
2013-08-01 15:55:00,86.2,66.5,30.04,ENE,68,2.0,6.0,52,0.00,,,0.00,WeatherCatV1.20B785,2013-08-01 20:55:00,
2013-08-01 16:00:00,86.2,66.5,30.04,ENE,68,2.0,6.0,52,0.00,,,0.00,WeatherCatV1.20B785,2013-08-01 21:00:00,
2013-08-01 16:05:00,86.2,66.5,30.04,ENE,68,2.0,6.0,52,0.00,,,0.00,WeatherCatV1.20B785,2013-08-01 21:05:00,
2013-08-01 16:10:00,86.2,67.6,30.03,East,90,2.0,8.0,54,0.00,,,0.00,WeatherCatV1.20B785,2013-08-01 21:10:00,
2013-08-01 16:15:00,86.2,67.6,30.03,East,90,2.0,8.0,54,0.00,,,0.00,WeatherCatV1.20B785,2013-08-01 21:15:00,
2013-08-01 16:20:00,86.2,67.6,30.03,East,90,2.0,8.0,54,0.00,,,0.00,WeatherCatV1.20B785,2013-08-01 21:20:00,
2013-08-01 16:25:00,86.2,67.6,30.03,East,90,2.0,8.0,54,0.00,,,0.00,WeatherCatV1.20B785,2013-08-01 21:25:00,
2013-08-01 16:30:00,86.2,67.6,30.03,East,90,2.0,8.0,54,0.00,,,0.00,WeatherCatV1.20B785,2013-08-01 21:30:00,
2013-08-01 16:35:00,86.2,67.6,30.03,East,90,2.0,8.0,54,0.00,,,0.00,WeatherCatV1.20B785,2013-08-01 21:35:00,
2013-08-01 16:40:00,86.2,67.0,30.02,SE,135,2.0,7.0,53,0.00,,,0.00,WeatherCatV1.20B785,2013-08-01 21:40:00,
2013-08-01 16:45:00,86.2,67.0,30.02,SE,135,2.0,7.0,53,0.00,,,0.00,WeatherCatV1.20B785,2013-08-01 21:45:00,
2013-08-01 16:50:00,86.2,67.0,30.02,SE,135,2.0,7.0,53,0.00,,,0.00,WeatherCatV1.20B785,2013-08-01 21:50:00,
2013-08-01 16:55:00,86.2,67.0,30.02,SE,135,2.0,7.0,53,0.00,,,0.00,WeatherCatV1.20B785,2013-08-01 21:55:00,
2013-08-01 17:00:00,86.2,67.0,30.02,SE,135,2.0,7.0,53,0.00,,,0.00,WeatherCatV1.20B785,2013-08-01 22:00:00,
2013-08-01 17:05:00,86.2,67.0,30.02,SE,135,2.0,7.0,53,0.00,,,0.00,WeatherCatV1.20B785,2013-08-01 22:05:00,
2013-08-01 17:10:00,86.4,66.7,30.01,ENE,68,2.0,7.0,52,0.00,,,0.00,WeatherCatV1.20B785,2013-08-01 22:10:00,
2013-08-01 17:15:00,86.4,66.7,30.01,ENE,68,2.0,7.0,52,0.00,,,0.00,WeatherCatV1.20B785,2013-08-01 22:15:00,
2013-08-01 17:20:00,86.4,66.7,30.01,ENE,68,2.0,7.0,52,0.00,,,0.00,WeatherCatV1.20B785,2013-08-01 22:20:00,
2013-08-01 17:25:00,86.4,66.7,30.01,ENE,68,2.0,7.0,52,0.00,,,0.00,WeatherCatV1.20B785,2013-08-01 22:25:00,
2013-08-01 17:30:00,86.4,66.7,30.01,ENE,68,2.0,7.0,52,0.00,,,0.00,WeatherCatV1.20B785,2013-08-01 22:30:00,
2013-08-01 17:35:00,86.4,66.7,30.01,ENE,68,2.0,7.0,52,0.00,,,0.00,WeatherCatV1.20B785,2013-08-01 22:35:00,
2013-08-01 17:40:00,85.7,67.1,30.00,SE,135,2.0,7.0,54,0.00,,,0.00,WeatherCatV1.20B785,2013-08-01 22:40:00,
2013-08-01 17:45:00,85.7,67.1,30.00,SE,135,2.0,7.0,54,0.00,,,0.00,WeatherCatV1.20B785,2013-08-01 22:45:00,
2013-08-01 17:50:00,85.7,67.1,30.00,SE,135,2.0,7.0,54,0.00,,,0.00,WeatherCatV1.20B785,2013-08-01 22:50:00,
2013-08-01 17:55:00,85.7,67.1,30.00,SE,135,2.0,7.0,54,0.00,,,0.00,WeatherCatV1.20B785,2013-08-01 22:55:00,
2013-08-01 18:00:00,85.7,67.1,30.00,SE,135,2.0,7.0,54,0.00,,,0.00,WeatherCatV1.20B785,2013-08-01 23:00:00,
2013-08-01 18:05:00,85.7,67.1,30.00,SE,135,2.0,7.0,54,0.00,,,0.00,WeatherCatV1.20B785,2013-08-01 23:05:00,
2013-08-01 18:10:00,85.5,67.5,29.99,SE,135,1.0,5.0,55,0.00,,,0.00,WeatherCatV1.20B785,2013-08-01 23:10:00,
2013-08-01 18:15:00,85.5,67.5,29.99,SE,135,1.0,5.0,55,0.00,,,0.00,WeatherCatV1.20B785,2013-08-01 23:15:00,
2013-08-01 18:20:00,85.5,67.5,29.99,SE,135,1.0,5.0,55,0.00,,,0.00,WeatherCatV1.20B785,2013-08-01 23:20:00,
2013-08-01 18:25:00,85.5,67.5,29.99,SE,135,1.0,5.0,55,0.00,,,0.00,WeatherCatV1.20B785,2013-08-01 23:25:00,
2013-08-01 18:30:00,85.5,67.5,29.99,SE,135,1.0,5.0,55,0.00,,,0.00,WeatherCatV1.20B785,2013-08-01 23:30:00,
2013-08-01 18:35:00,85.5,67.5,29.99,SE,135,1.0,5.0,55,0.00,,,0.00,WeatherCatV1.20B785,2013-08-01 23:35:00,
2013-08-01 18:40:00,84.7,68.2,29.99,SE,135,1.0,5.0,58,0.00,,,0.00,WeatherCatV1.20B785,2013-08-01 23:40:00,
2013-08-01 18:45:00,84.7,68.2,29.99,SE,135,1.0,5.0,58,0.00,,,0.00,WeatherCatV1.20B785,2013-08-01 23:45:00,
2013-08-01 18:50:00,84.7,68.2,29.99,SE,135,1.0,5.0,58,0.00,,,0.00,WeatherCatV1.20B785,2013-08-01 23:50:00,
2013-08-01 18:55:00,84.7,68.2,29.99,SE,135,1.0,5.0,58,0.00,,,0.00,WeatherCatV1.20B785,2013-08-01 23:55:00,
2013-08-01 19:00:00,84.7,68.2,29.99,SE,135,1.0,5.0,58,0.00,,,0.00,WeatherCatV1.20B785,2013-08-02 00:00:00,
2013-08-01 19:05:00,84.7,68.2,29.99,SE,135,1.0,5.0,58,0.00,,,0.00,WeatherCatV1.20B785,2013-08-02 00:05:00,
2013-08-01 19:10:00,84.1,68.2,29.98,East,90,1.0,3.0,59,0.00,,,0.00,WeatherCatV1.20B785,2013-08-02 00:10:00,
2013-08-01 19:15:00,84.1,68.2,29.98,East,90,1.0,3.0,59,0.00,,,0.00,WeatherCatV1.20B785,2013-08-02 00:15:00,
2013-08-01 19:20:00,84.1,68.2,29.98,East,90,1.0,3.0,59,0.00,,,0.00,WeatherCatV1.20B785,2013-08-02 00:20:00,
2013-08-01 19:25:00,84.1,68.2,29.98,East,90,1.0,3.0,59,0.00,,,0.00,WeatherCatV1.20B785,2013-08-02 00:25:00,
2013-08-01 19:30:00,84.1,68.2,29.98,East,90,1.0,3.0,59,0.00,,,0.00,WeatherCatV1.20B785,2013-08-02 00:30:00,
2013-08-01 19:35:00,84.1,68.2,29.98,East,90,1.0,3.0,59,0.00,,,0.00,WeatherCatV1.20B785,2013-08-02 00:35:00,
2013-08-01 19:40:00,82.3,69.3,29.98,ESE,112,0.0,3.0,65,0.00,,,0.00,WeatherCatV1.20B785,2013-08-02 00:40:00,
2013-08-01 19:45:00,82.3,69.3,29.98,ESE,112,0.0,3.0,65,0.00,,,0.00,WeatherCatV1.20B785,2013-08-02 00:45:00,
2013-08-01 19:50:00,82.3,69.3,29.98,ESE,112,0.0,3.0,65,0.00,,,0.00,WeatherCatV1.20B785,2013-08-02 00:50:00,
2013-08-01 19:55:00,82.3,69.3,29.98,ESE,112,0.0,3.0,65,0.00,,,0.00,WeatherCatV1.20B785,2013-08-02 00:55:00,
2013-08-01 20:00:00,82.3,69.3,29.98,ESE,112,0.0,3.0,65,0.00,,,0.00,WeatherCatV1.20B785,2013-08-02 01:00:00,
2013-08-01 20:05:00,82.3,69.3,29.98,ESE,112,0.0,3.0,65,0.00,,,0.00,WeatherCatV1.20B785,2013-08-02 01:05:00,
2013-08-01 20:10:00,80.3,69.6,29.98,SE,135,0.0,2.0,70,0.00,,,0.00,WeatherCatV1.20B785,2013-08-02 01:10:00,
2013-08-01 20:15:00,80.3,69.6,29.98,SE,135,0.0,2.0,70,0.00,,,0.00,WeatherCatV1.20B785,2013-08-02 01:15:00,
2013-08-01 20:20:00,80.3,69.6,29.98,SE,135,0.0,2.0,70,0.00,,,0.00,WeatherCatV1.20B785,2013-08-02 01:20:00,
2013-08-01 20:25:00,80.3,69.6,29.98,SE,135,0.0,2.0,70,0.00,,,0.00,WeatherCatV1.20B785,2013-08-02 01:25:00,
2013-08-01 20:30:00,80.3,69.6,29.98,SE,135,0.0,2.0,70,0.00,,,0.00,WeatherCatV1.20B785,2013-08-02 01:30:00,
2013-08-01 20:35:00,80.3,69.6,29.98,SE,135,0.0,2.0,70,0.00,,,0.00,WeatherCatV1.20B785,2013-08-02 01:35:00,
2013-08-01 20:40:00,77.6,69.4,29.98,SE,135,0.0,0.0,76,0.00,,,0.00,WeatherCatV1.20B785,2013-08-02 01:40:00,
2013-08-01 20:45:00,77.6,69.4,29.98,SE,135,0.0,0.0,76,0.00,,,0.00,WeatherCatV1.20B785,2013-08-02 01:45:00,
2013-08-01 20:50:00,77.6,69.4,29.98,SE,135,0.0,0.0,76,0.00,,,0.00,WeatherCatV1.20B785,2013-08-02 01:50:00,
2013-08-01 20:55:00,77.6,69.4,29.98,SE,135,0.0,0.0,76,0.00,,,0.00,WeatherCatV1.20B785,2013-08-02 01:55:00,
2013-08-01 21:00:00,77.6,69.4,29.98,SE,135,0.0,0.0,76,0.00,,,0.00,WeatherCatV1.20B785,2013-08-02 02:00:00,
2013-08-01 21:05:00,77.6,69.4,29.98,SE,135,0.0,0.0,76,0.00,,,0.00,WeatherCatV1.20B785,2013-08-02 02:05:00,
2013-08-01 21:10:00,74.9,69.0,29.99,South,180,0.0,1.0,82,0.00,,,0.00,WeatherCatV1.20B785,2013-08-02 02:10:00,
2013-08-01 21:15:00,74.9,69.0,29.99,South,180,0.0,1.0,82,0.00,,,0.00,WeatherCatV1.20B785,2013-08-02 02:15:00,
2013-08-01 21:20:00,74.9,69.0,29.99,South,180,0.0,1.0,82,0.00,,,0.00,WeatherCatV1.20B785,2013-08-02 02:20:00,
2013-08-01 21:25:00,74.9,69.0,29.99,South,180,0.0,1.0,82,0.00,,,0.00,WeatherCatV1.20B785,2013-08-02 02:25:00,
2013-08-01 21:30:00,74.9,69.0,29.99,South,180,0.0,1.0,82,0.00,,,0.00,WeatherCatV1.20B785,2013-08-02 02:30:00,
2013-08-01 21:35:00,74.9,69.0,29.99,South,180,0.0,1.0,82,0.00,,,0.00,WeatherCatV1.20B785,2013-08-02 02:35:00,
2013-08-01 21:40:00,72.6,68.2,29.98,South,180,0.0,0.0,86,0.00,,,0.00,WeatherCatV1.20B785,2013-08-02 02:40:00,
2013-08-01 21:45:00,72.6,68.2,29.98,South,180,0.0,0.0,86,0.00,,,0.00,WeatherCatV1.20B785,2013-08-02 02:45:00,
2013-08-01 21:50:00,72.6,68.2,29.98,South,180,0.0,0.0,86,0.00,,,0.00,WeatherCatV1.20B785,2013-08-02 02:50:00,
2013-08-01 21:55:00,72.6,68.2,29.98,South,180,0.0,0.0,86,0.00,,,0.00,WeatherCatV1.20B785,2013-08-02 02:55:00,
2013-08-01 22:00:00,72.6,68.2,29.98,South,180,0.0,0.0,86,0.00,,,0.00,WeatherCatV1.20B785,2013-08-02 03:00:00,
2013-08-01 22:05:00,72.6,68.2,29.98,South,180,0.0,0.0,86,0.00,,,0.00,WeatherCatV1.20B785,2013-08-02 03:05:00,
2013-08-01 22:10:00,71.0,67.6,29.99,South,180,0.0,0.0,89,0.00,,,0.00,WeatherCatV1.20B785,2013-08-02 03:10:00,
2013-08-01 22:15:00,71.0,67.6,29.99,South,180,0.0,0.0,89,0.00,,,0.00,WeatherCatV1.20B785,2013-08-02 03:15:00,
2013-08-01 22:20:00,71.0,67.6,29.99,South,180,0.0,0.0,89,0.00,,,0.00,WeatherCatV1.20B785,2013-08-02 03:20:00,
2013-08-01 22:25:00,71.0,67.6,29.99,South,180,0.0,0.0,89,0.00,,,0.00,WeatherCatV1.20B785,2013-08-02 03:25:00,
2013-08-01 22:30:00,71.0,67.6,29.99,South,180,0.0,0.0,89,0.00,,,0.00,WeatherCatV1.20B785,2013-08-02 03:30:00,
2013-08-01 22:35:00,71.0,67.6,29.99,South,180,0.0,0.0,89,0.00,,,0.00,WeatherCatV1.20B785,2013-08-02 03:35:00,
2013-08-01 22:40:00,69.8,67.1,29.99,South,180,0.0,0.0,91,0.00,,,0.00,WeatherCatV1.20B785,2013-08-02 03:40:00,
2013-08-01 22:45:00,69.8,67.1,29.99,South,180,0.0,0.0,91,0.00,,,0.00,WeatherCatV1.20B785,2013-08-02 03:45:00,
2013-08-01 22:50:00,69.8,67.1,29.99,South,180,0.0,0.0,91,0.00,,,0.00,WeatherCatV1.20B785,2013-08-02 03:50:00,
2013-08-01 22:55:00,69.8,67.1,29.99,South,180,0.0,0.0,91,0.00,,,0.00,WeatherCatV1.20B785,2013-08-02 03:55:00,
2013-08-01 23:00:00,69.8,67.1,29.99,South,180,0.0,0.0,91,0.00,,,0.00,WeatherCatV1.20B785,2013-08-02 04:00:00,
2013-08-01 23:05:00,69.8,67.1,29.99,South,180,0.0,0.0,91,0.00,,,0.00,WeatherCatV1.20B785,2013-08-02 04:05:00,
2013-08-01 23:10:00,68.9,66.5,29.97,South,180,0.0,1.0,92,0.00,,,0.00,WeatherCatV1.20B785,2013-08-02 04:10:00,
2013-08-01 23:15:00,68.9,66.5,29.97,South,180,0.0,1.0,92,0.00,,,0.00,WeatherCatV1.20B785,2013-08-02 04:15:00,
2013-08-01 23:20:00,68.9,66.5,29.97,South,180,0.0,1.0,92,0.00,,,0.00,WeatherCatV1.20B785,2013-08-02 04:20:00,
2013-08-01 23:25:00,68.9,66.5,29.97,South,180,0.0,1.0,92,0.00,,,0.00,WeatherCatV1.20B785,2013-08-02 04:25:00,
2013-08-01 23:30:00,68.9,66.5,29.97,South,180,0.0,1.0,92,0.00,,,0.00,WeatherCatV1.20B785,2013-08-02 04:30:00,
2013-08-01 23:35:00,68.9,66.5,29.97,South,180,0.0,1.0,92,0.00,,,0.00,WeatherCatV1.20B785,2013-08-02 04:35:00,
2013-08-01 23:40:00,68.3,66.2,29.98,SSE,158,0.0,1.0,93,0.00,,,0.00,WeatherCatV1.20B785,2013-08-02 04:40:00,
2013-08-01 23:45:00,68.3,66.2,29.98,SSE,158,0.0,1.0,93,0.00,,,0.00,WeatherCatV1.20B785,2013-08-02 04:45:00,
2013-08-01 23:50:00,68.3,66.2,29.98,SSE,158,0.0,1.0,93,0.00,,,0.00,WeatherCatV1.20B785,2013-08-02 04:50:00,
2013-08-01 23:55:00,68.3,66.2,29.98,SSE,158,0.0,1.0,93,0.00,,,0.00,WeatherCatV1.20B785,2013-08-02 04:55:00,